Lapse_Rate
6.7 6.7 6.5 6.3 6.2 6.1 6.2 6.5 6.5 6.7 6.8 6.8 7.0 7.2 7.2 7.4 7.6 7.9 7.9 7.9 7.9 8.0 7.7 7.7 7.7 7.7 7.6 7.5 7.6 7.7 7.7 7.5 7.2 7.3 7.3 7.3 7.3 7.2 7.0 6.8 6.3 6.4 6.1 6.6
6.8 6.8 6.5 6.2 6.2 6.0 6.3 6.4 6.6 6.7 6.7 6.7 7.0 7.2 7.0 7.2 7.4 7.7 7.8 7.8 7.9 8.1 8.0 7.8 7.6 7.7 7.6 7.6 7.5 7.4 7.6 7.3 7.1 7.0 7.1 7.1 7.1 6.9 6.7 6.7 6.6 6.5 5.5 6.5
7.0 6.8 6.5 6.3 6.2 6.1 6.2 6.5 6.4 6.6 6.7 6.7 7.1 7.1 6.9 7.1 7.3 7.5 7.5 7.7 7.7 7.8 7.8 7.8 7.8 7.7 7.7 7.5 7.4 7.4 7.5 7.6 7.8 7.6 7.5 7.2 7.0 6.7 6.7 6.5 6.5 6.6 6.8 6.8
7.0 6.8 6.5 6.4 6.2 6.1 6.2 6.1 6.2 6.7 6.7 6.8 7.0 6.7 6.8 7.0 7.2 7.2 7.1 7.3 7.5 7.6 7.6 7.6 7.5 7.6 7.5 7.5 7.6 7.5 7.5 7.6 7.5 7.5 7.5 7.3 7.1 6.8 6.7 6.7 6.6 6.4 6.9 6.6
6.9 6.8 6.4 6.4 6.2 6.1 6.1 6.0 6.1 6.7 6.9 7.1 6.9 6.6 6.7 6.8 7.0 7.1 7.0 7.1 7.2 7.3 7.4 7.5 7.4 7.5 7.5 7.5 7.7 7.6 7.5 7.5 7.4 7.3 7.3 7.3 7.2 7.0 6.9 6.8 6.8 6.8 6.7 6.8
6.8 6.5 6.4 6.4 6.2 6.0 5.9 5.9 6.2 6.4 6.9 6.8 6.7 6.8 6.7 6.9 6.8 6.9 6.9 6.9 7.0 7.1 7.2 7.2 7.3 7.3 7.3 7.5 7.6 7.6 7.5 7.3 7.1 7.0 7.2 6.8 6.7 7.6 7.4 7.4 7.2 7.0 6.8 7.0
6.5 6.5 6.4 6.4 6.3 6.0 6.0 6.1 6.3 6.5 6.8 6.7 6.8 6.8 6.8 6.9 6.9 6.9 6.9 6.8 6.9 7.0 6.9 6.9 7.0 6.9 6.9 7.0 7.2 7.3 7.4 7.4 7.2 7.1 6.8 4.7 7.7 7.7 7.6 7.2 7.2 6.9 6.8 6.6
6.5 6.5 6.5 6.5 6.3 6.0 5.9 6.1 6.5 6.7 6.9 6.7 6.6 6.7 6.7 6.8 6.8 6.8 6.8 6.8 6.7 6.7 6.7 6.7 6.6 6.6 6.6 6.7 6.8 7.1 7.2 7.2 7.2 7.1 6.6 7.0 7.3 7.6 7.6 7.4 7.2 7.1 7.0 6.7
6.6 6.6 6.8 6.5 6.5 6.0 5.8 6.1 6.3 6.5 6.8 6.6 6.7 6.7 6.7 6.8 6.8 6.7 6.8 6.7 6.5 6.5 6.4 6.5 6.3 6.5 6.6 6.8 6.8 7.0 7.0 6.9 6.8 6.6 6.5 4.3 7.5 7.6 7.6 7.2 6.7 7.2 7.0 6.5
6.7 6.8 6.9 6.7 6.4 6.0 5.6 6.0 6.3 6.5 6.6 6.7 6.7 6.7 6.7 6.6 6.7 6.7 6.7 6.7 6.5 6.4 6.4 6.3 6.3 6.3 6.4 6.5 6.7 7.1 7.0 6.7 6.6 6.7 6.5 6.7 7.4 7.4 7.2 6.5 7.3 6.8 6.7 6.3
6.9 7.0 7.0 6.9 6.7 6.3 6.1 6.2 6.4 6.5 6.7 6.8 6.7 6.8 6.8 6.7 6.7 6.7 6.7 6.5 6.4 6.3 6.2 6.1 6.1 6.2 6.3 6.3 6.5 6.9 6.9 6.9 6.9 6.6 6.3 6.2 7.5 7.2 7.1 7.4 7.0 6.7 6.5 6.1
7.0 7.2 7.1 6.9 6.9 6.6 6.6 6.4 6.5 6.6 6.6 6.8 6.7 6.7 6.7 6.6 6.6 6.6 6.5 6.4 6.4 6.2 6.2 6.3 6.3 6.3 6.2 6.5 6.3 7.0 6.6 7.3 7.3 7.2 7.5 7.5 7.2 7.0 6.8 6.5 6.5 6.4 6.1 5.9
7.4 7.3 7.5 7.2 7.0 6.9 6.8 6.7 6.6 6.6 6.6 6.6 6.5 6.5 6.5 6.4 6.4 6.4 6.3 6.3 6.4 6.3 6.3 6.4 6.4 6.4 6.5 6.6 6.6 6.8 7.1 7.2 7.0 7.1 7.3 7.4 6.9 6.8 6.7 6.4 6.2 6.0 5.8 5.7
7.6 7.6 7.6 7.5 7.4 7.3 7.2 7.1 6.9 6.7 6.8 6.6 6.5 6.5 6.4 6.4 6.3 6.3 6.3 6.3 6.3 6.3 6.4 6.6 6.6 6.5 6.5 6.5 6.5 6.5 6.9 7.0 7.2 6.8 7.2 7.0 6.8 6.7 6.5 6.2 6.0 5.8 5.7 5.7
7.5 7.5 7.5 7.5 7.5 7.4 7.3 7.2 7.0 6.9 6.8 6.7 6.8 6.6 6.5 6.4 6.4 6.4 6.3 6.4 6.4 6.6 6.5 6.7 6.8 6.7 6.6 6.3 6.1 6.4 7.1 7.4 7.1 6.9 7.0 6.4 6.4 6.4 6.3 6.1 6.0 6.0 6.0 6.0
7.3 7.3 7.4 7.4 7.4 7.4 7.3 7.1 7.1 7.0 6.9 6.8 6.8 6.8 6.7 6.7 6.7 6.7 6.8 6.9 6.9 6.8 6.8 6.7 6.4 6.8 6.6 5.7 5.7 6.7 7.7 7.5 7.4 6.8 6.7 6.6 6.6 6.6 6.5 6.4 6.3 6.2 6.1 6.1
7.3 7.3 7.3 7.4 7.3 7.2 7.1 7.2 7.4 7.2 7.1 6.9 6.7 6.6 6.6 6.8 6.9 6.9 7.0 7.0 7.0 6.9 6.8 6.6 6.6 6.7 6.5 6.0 5.8 7.8 7.5 7.4 7.2 7.1 7.0 6.8 7.0 6.7 6.5 6.3 6.2 6.1 5.9 6.0
7.1 7.1 7.1 7.1 7.2 7.2 7.1 7.2 7.3 7.2 7.0 6.9 6.4 6.5 7.1 7.3 7.2 7.1 7.2 7.2 7.1 6.8 6.6 6.6 6.7 6.3 6.4 5.7 7.6 7.6 7.4 7.2 7.2 7.2 6.8 6.7 6.5 6.5 6.4 6.3 6.0 6.0 6.0 6.0
7.0 7.0 7.0 6.9 6.8 6.9 7.0 7.1 7.1 6.9 6.6 6.4 6.3 6.6 6.8 7.1 7.2 7.3 7.3 7.3 7.1 6.8 6.6 6.9 6.9 6.5 6.1 7.2 7.2 7.1 7.1 7.0 6.9 6.8 6.5 6.4 6.3 6.2 6.2 6.1 6.1 6.1 6.0 5.1
6.9 6.9 6.9 6.8 7.0 7.1 7.0 6.9 6.7 6.4 6.3 6.1 6.3 6.6 6.6 6.9 7.1 7.2 7.2 7.1 6.9 6.6 6.6 6.8 6.4 6.4 6.9 7.1 7.0 7.2 7.2 7.0 7.0 6.9 6.8 6.6 6.3 6.0 6.0 6.2 6.3 5.8 4.8 4.3
6.9 7.0 6.9 6.9 6.9 6.8 6.5 6.4 6.2 6.1 6.0 6.1 6.3 6.6 6.6 6.9 6.8 7.0 6.9 6.7 6.8 6.5 6.5 6.5 6.1 6.0 6.4 6.6 6.8 6.8 6.8 6.8 6.8 6.8 6.5 5.8 5.9 6.1 6.1 5.4 5.1 4.1 4.4 4.4
6.7 6.6 6.5 6.5 6.6 6.6 6.5 6.0 6.0 6.0 5.5 5.7 6.8 7.1 7.0 6.7 6.8 6.6 6.4 6.5 6.3 6.4 6.1 6.0 5.9 5.7 6.1 6.1 6.0 6.0 6.1 6.1 6.0 6.0 5.9 5.8 6.2 5.8 5.3 5.1 5.0 4.5 4.1 4.3
6.3 6.3 6.3 6.5 6.7 6.4 5.8 5.7 5.4 6.0 6.2 6.0 6.4 6.4 6.3 6.2 6.1 6.2 6.3 6.4 6.5 6.2 5.7 5.7 5.4 5.3 5.3 5.4 5.4 5.3 5.3 5.3 5.3 5.4 5.5 5.1 5.4 5.7 5.4 5.0 4.5 4.5 4.8 5.2
6.0 6.0 6.1 6.3 5.9 5.6 5.7 5.7 6.0 6.0 5.6 5.7 5.7 5.8 6.0 5.8 5.9 6.2 6.3 6.3 6.2 5.8 5.4 4.9 5.1 5.1 5.1 4.9 4.8 4.8 5.0 5.0 5.1 5.3 5.6 5.7 5.3 5.0 4.9 4.9 4.9 5.2 5.1 5.6
6.0 6.0 6.1 5.7 5.7 5.7 5.8 5.7 5.7 5.6 5.6 5.7 5.7 5.8 6.0 6.0 6.0 5.9 6.1 5.9 5.6 5.2 5.0 4.9 5.0 4.9 5.2 5.1 5.1 5.1 5.1 5.2 5.3 5.4 5.3 5.2 5.3 5.1 5.2 5.4 5.5 5.6 5.9 6.2
5.9 5.9 5.8 5.8 5.9 5.9 5.9 5.8 5.8 5.8 5.8 5.7 5.7 5.8 5.9 6.0 6.1 5.8 5.7 5.6 5.3 5.2 5.4 5.4 5.4 5.4 5.5 5.7 5.6 5.5 5.4 5.5 5.8 5.7 5.7 5.8 5.8 5.9 6.0 5.9 5.9 6.0 6.3 6.7
5.6 5.8 6.0 5.9 6.0 6.1 6.1 6.1 6.2 6.1 5.9 6.0 5.9 5.9 6.3 6.1 6.0 5.9 5.8 5.8 5.8 5.8 5.8 5.8 5.7 5.6 5.6 5.5 5.4 5.4 5.6 5.6 5.7 5.7 5.6 5.6 5.7 5.9 6.1 6.3 6.6 6.8 6.8 6.7
Wind_Speed
14 10 8 10 15 19 4 4 3 3 2 4 1 3 4 4 2 6 4 4 2 5 4 4 2 4 1 5 1 2 1 5 3 1 5 3 1 3 4 4 3 1 3 5
11 9 8 12 20 22 5 4 2 2 5 4 2 4 4 0 1 3 2 2 2 2 5 6 2 3 0 3 3 3 1 2 3 6 6 5 1 3 5 5 3 4 5 5
10 8 8 13 19 15 4 4 2 4 3 1 7 3 3 1 3 3 3 3 5 5 5 6 4 2 1 1 3 2 4 3 5 6 4 3 3 3 3 4 3 3 5 3
10 7 8 14 17 16 3 2 5 5 4 2 4 5 2 3 2 1 3 3 3 4 4 3 3 2 2 3 2 3 4 3 2 3 4 2 0 4 6 6 5 5 5 7
8 5 7 12 16 16 3 4 4 3 2 7 6 4 6 6 2 4 1 6 2 2 6 6 8 6 2 3 4 3 4 1 1 1 5 6 3 5 6 5 4 7 6 7
6 5 5 11 22 8 3 1 2 5 2 4 6 5 6 8 6 6 2 9 5 5 2 4 5 3 5 5 5 3 3 4 3 3 4 4 6 8 8 5 4 6 6 8
6 4 4 8 22 8 3 2 3 4 2 4 6 6 4 6 5 7 1 5 6 3 6 4 6 11 11 10 8 3 5 4 2 2 3 2 6 3 5 5 3 3 2 6
6 4 5 4 17 15 2 2 4 3 2 2 3 7 6 7 6 5 3 4 0 9 5 5 5 5 6 5 6 6 3 5 3 4 3 5 4 5 6 7 7 6 7 6
7 7 9 7 10 13 4 2 3 3 6 3 5 5 4 5 4 4 3 5 6 6 3 4 4 4 4 2 1 5 5 6 4 3 4 6 6 3 5 4 5 9 8 8
8 10 12 12 9 10 5 2 2 4 4 1 3 4 6 6 5 4 3 4 2 3 3 3 3 3 3 4 6 4 2 3 5 2 4 8 7 4 3 5 7 7 10 9
9 12 14 14 11 8 4 0 2 3 3 2 1 1 5 4 3 5 5 4 3 3 4 3 4 3 5 2 4 6 7 6 4 3 1 8 7 3 8 6 1 9 8 9
10 13 14 16 16 7 5 3 2 2 5 3 1 3 2 1 6 6 1 5 4 5 4 1 3 2 2 2 3 2 3 7 5 10 6 4 6 5 5 6 6 7 8 6
13 13 13 14 16 14 6 3 2 4 4 3 4 3 6 5 2 3 5 2 5 4 2 4 3 3 4 4 5 3 4 4 3 2 5 8 8 6 4 6 6 5 6 7
12 13 14 15 16 15 9 4 2 4 4 4 4 3 3 6 4 3 2 7 6 6 3 3 3 3 4 3 3 4 4 5 4 5 7 5 7 8 6 6 6 7 8 7
12 13 12 14 14 17 14 4 3 2 4 4 2 4 5 6 5 8 8 10 6 3 3 2 3 2 3 0 2 3 5 7 4 7 8 5 6 6 7 9 10 11 9 5
11 11 12 13 9 5 4 4 4 8 2 4 2 3 5 7 7 8 7 4 3 3 4 3 2 2 3 4 4 7 6 5 7 8 6 7 4 5 6 8 8 6 8 9
10 11 13 12 10 5 4 4 2 10 2 3 2 3 4 3 4 3 3 4 2 3 2 1 3 2 4 3 5 10 9 9 7 6 6 1 4 5 6 7 8 13 12 10
9 10 13 18 21 13 4 4 11 9 5 4 3 3 4 5 2 2 3 2 2 4 2 1 2 1 2 3 10 6 8 8 7 6 7 4 5 7 9 12 14 14 10 8
7 7 8 6 5 3 2 16 11 6 4 3 2 4 4 3 2 1 3 2 2 2 1 2 3 2 5 6 4 5 6 5 5 1 2 5 7 11 13 14 12 13 7 5
6 6 4 3 2 9 9 5 4 5 3 3 2 1 2 2 1 2 2 2 2 1 3 2 2 3 5 4 6 7 8 8 4 5 5 8 11 12 12 12 8 5 5 5
3 3 2 2 7 3 4 3 3 1 3 3 1 1 2 2 2 2 1 1 0 2 4 3 2 2 4 11 8 9 10 9 10 11 15 14 14 12 11 5 6 3 3 3
3 4 3 2 4 3 4 2 1 2 2 2 1 0 1 0 2 3 0 2 1 5 1 1 3 2 5 9 10 12 14 17 18 17 17 13 11 8 5 4 3 2 2 2
3 4 4 3 3 3 4 5 1 2 2 2 2 1 1 2 3 2 2 3 4 1 2 2 2 4 6 7 8 11 12 15 14 12 7 5 4 3 2 2 2 2 1 2
3 3 3 2 1 2 1 1 2 1 1 1 1 2 2 1 2 1 3 1 1 2 2 1 1 3 5 7 6 5 6 5 6 6 5 4 3 2 1 2 3 3 4 5
3 3 3 2 2 2 1 1 2 1 0 1 1 2 1 1 2 1 2 1 2 1 0 1 1 3 4 5 4 2 3 3 3 3 4 3 3 2 3 3 4 6 5 5
3 3 3 2 2 2 1 1 1 1 1 1 1 2 2 1 1 1 2 2 0 1 1 1 2 3 3 3 2 2 0 2 0 1 2 3 2 3 4 5 4 4 4 4
3 2 2 2 3 3 1 1 0 0 1 1 1 3 3 1 1 0 2 1 1 1 1 1 3 4 5 5 4 1 2 2 3 3 4 4 4 3 3 5 5 5 4 5
Wind_Direction
190 190 193 194 181 157 104 111 109 295 52 68 51 177 210 279 303 33 60 97 93 148 118 80 99 138 95 330 267 74 32 122 96 216 288 290 162 125 108 108 226 43 143 277
179 188 185 189 179 170 129 113 129 328 89 145 274 270 281 12 28 41 55 86 82 102 121 99 99 106 271 353 72 138 155 33 65 354 351 350 126 71 90 103 89 195 132 262
174 190 184 193 190 189 99 106 103 342 51 139 148 176 259 123 21 59 75 110 82 80 62 28 134 126 22 37 95 124 102 95 150 183 203 184 157 135 117 116 119 188 223 205
175 192 192 193 181 192 99 99 213 179 189 236 165 162 202 147 121 68 40 38 66 124 107 70 105 129 124 29 21 73 85 114 92 49 18 34 228 172 181 196 187 173 246 211
177 174 197 187 168 174 81 136 138 38 142 139 152 153 199 168 166 138 101 111 34 103 147 176 190 142 163 186 36 71 17 160 92 87 2 8 291 244 237 236 222 250 252 254
152 160 183 179 165 162 122 200 43 107 290 119 114 205 189 200 136 23 35 144 101 49 333 105 82 71 94 129 130 110 78 117 86 256 341 337 329 224 186 208 192 174 196 221
139 129 141 160 176 182 131 171 106 96 200 148 181 174 173 163 175 141 102 91 97 141 137 108 41 48 54 54 35 90 116 92 75 180 18 8 244 296 230 203 222 204 114 170
116 96 87 130 172 183 111 130 121 131 129 176 106 122 115 88 65 70 73 342 320 137 55 64 50 353 21 356 28 17 79 118 101 141 199 301 288 204 160 173 255 196 165 155
99 76 70 78 158 160 89 113 123 119 117 250 131 123 177 134 110 34 47 30 67 65 78 75 136 196 199 241 78 48 54 68 109 131 151 214 241 254 135 105 294 186 161 170
85 66 55 55 99 138 126 139 180 90 105 257 138 156 160 122 97 106 126 153 74 42 71 84 141 227 183 179 179 200 42 16 158 147 230 286 237 200 121 112 236 163 175 176
80 64 51 43 62 98 88 121 352 114 102 310 3 132 135 112 118 136 190 69 343 45 74 123 196 158 220 140 186 181 170 155 203 105 67 277 166 82 170 207 189 178 181 185
79 60 48 37 42 67 133 91 340 49 83 158 3 66 46 60 167 129 40 158 162 165 92 119 126 160 177 148 233 119 234 191 183 186 213 250 229 214 226 176 153 196 181 172
67 50 40 34 35 48 100 112 23 58 83 5 49 3 332 26 46 158 119 295 152 135 131 143 159 170 131 173 237 200 244 164 213 94 253 233 241 261 232 201 204 161 156 151
65 51 36 30 30 57 79 80 4 74 98 109 279 333 36 328 26 88 94 125 72 94 72 107 138 159 188 211 208 177 200 135 206 258 280 288 266 236 213 188 163 146 151 157
67 55 39 30 45 73 81 81 35 54 121 158 243 313 6 358 37 76 86 110 110 116 85 105 209 165 115 53 68 263 189 200 168 237 222 200 233 218 181 169 174 162 151 121
68 56 37 29 43 55 56 40 8 14 46 95 110 294 350 357 45 71 69 75 94 107 140 197 233 246 119 161 211 253 230 227 213 249 215 212 263 224 167 170 163 139 125 125
72 54 38 46 69 66 73 148 280 338 34 82 55 343 327 329 39 39 28 26 60 102 129 192 180 217 125 164 217 245 242 242 246 215 130 231 189 204 171 119 105 108 100 97
77 60 64 79 90 113 48 1 357 342 90 61 114 273 360 357 22 34 352 43 18 21 132 66 184 41 117 242 242 254 254 265 278 222 205 226 137 119 110 117 115 104 104 104
76 49 63 44 36 46 315 323 330 38 96 120 106 148 216 7 47 38 28 39 42 322 182 243 118 193 219 242 306 282 257 218 251 206 148 142 133 130 125 118 114 108 143 174
43 45 46 42 317 318 322 4 27 19 348 42 106 102 127 66 23 13 65 4 172 223 242 103 186 254 302 338 322 279 278 278 171 123 122 110 108 112 100 89 89 180 162 157
42 62 86 251 324 52 34 66 70 3 29 14 78 164 145 351 117 176 114 167 282 245 256 191 244 282 324 341 14 23 28 50 58 74 85 88 92 89 101 136 206 129 131 192
108 128 98 34 35 47 84 81 25 69 185 344 81 298 68 15 109 103 244 168 97 247 150 182 258 6 360 39 42 48 61 71 73 72 79 82 103 144 180 149 133 192 210 159
55 51 50 17 341 77 164 172 204 121 358 348 11 41 2 16 41 66 107 185 226 88 191 233 41 62 69 66 67 55 62 72 80 91 86 84 103 84 102 165 167 185 349 338
65 64 72 45 96 61 114 97 101 128 103 39 45 63 50 347 65 96 190 212 56 211 225 273 32 27 27 50 45 62 78 71 95 105 107 103 129 167 259 11 29 31 284 260
69 50 88 83 112 63 60 77 107 39 105 58 77 71 72 14 76 24 70 34 209 129 184 6 28 48 73 67 67 53 21 34 51 52 39 21 8 335 301 267 235 226 245 262
76 68 104 121 106 102 107 57 81 172 118 90 56 103 84 63 117 116 225 158 189 176 149 297 113 86 92 109 359 334 186 81 12 272 241 231 219 238 278 302 286 273 239 266
72 57 38 95 79 96 104 108 316 3 63 72 93 95 184 98 84 77 32 97 95 31 336 252 141 149 184 201 214 307 322 336 354 354 358 334 325 339 329 320 309 308 285 246